DECAYED

RESURS P1 DEB, 60215 (Decayed)

Orbit data source: Space-Track

RESURS P1 DEB, 60215 was space debris in LEO originally from a Commonwealth of Independent States-origin launch on Tue, 25 Jun 2013 UTC launched from the Tyuratam Missile And Space Complex (TTMTR). Debris objects in space refer to the collection of defunct objects orbiting the Earth. Examples of debris include non-operational satellites, rocket bodies, and fragments generated from explosions, collisions, or faulty payload assembly.

Not visible in the next 10 days
Identifier
60215, 2013-030D
Orbit
Decayed
Country
Flag of CISCIS
Related business
Manufacturer
TSSKBP?
Mission
Decayed spacecraft
Bus & Motor
Unknown
Mass
Unknown
Launch date (UTC)
2013-06-25 (12 years ago)
Launch vehicle
Unknown
Launch site
Tyuratam Missile And Space Complex (TTMTR)
Object type
Payload
Rocket body
Debris
Shape & HBR
Unknown
Radar Cross Section
Small (<0.1 m²)

Expand to show TLE details & history
Last TLE update: 1 year ago

TLE from 1 year ago
0 RESURS P1 DEB
1 60215U 13030D   24201.02269827  .22006651  22682-5  23266-2 0  9994
2 60215  96.9439 251.2101 0017045 281.4061  78.5323 16.37163983  3498
Epoch: 2024-07-19T00:32Z
TLE epoch observation values (Epoch: 2024-07-19T00:32:41.13Z)
Latitude
-0.00007°
Longitude
-54.26574°
Altitude
174.416 km
Speed
7.803 km/s
True Right ascension
16h 44m 50s
True Declination
0° 00' 00"
Sunlit
Object was in full shadow at epoch
Visualization orbit readout
Latitude
Unknown
Longitude
Unknown
Altitude
Unknown
Speed
Unknown
Apparent Right ascension
Unknown
Apparent Declination
Unknown
Sunlit
N/A
Visualization observer readout
Local Sidereal Time
00:01:45
Azimuth
Unknown
Elevation
Unknown
Doppler factor
Unknown
Orbital elements
Apogee altitude
181.311 km
Perigee altitude
158.987 km
Semi-major axis
6,548.286 km
Eccentricity
0.0017
Inclination
96.9439°
RAAN
251.2101°
Arg. of periapsis
281.4061°
True anomaly
78.7238°
Mean anomaly
78.5323°
Eccentric anomaly
78.62804°
Mean motion
4.09592 °/min
Orbital period
87.89 mins
BSTAR
0.0023266
Loading maneuver chart data...
Computing Atmospheric mass density...

Documentation

Showing up to 5 results
|